Weather History for KAQP - October, 2010

Change the Weather History Date:

Thursday, October 28, 2010

  Actual Average Record
Temperature  
Mean Temperature 32 °F -  
Max Temperature 37 °F 48 °F 62 °F (1998)
Min Temperature 26 °F 30 °F 19 °F (2008)
Degree Days  
Heating Degree Days 32    
Moisture  
Dew Point 28 °F    
Average Humidity 85    
Maximum Humidity 100    
Minimum Humidity 60    
Precipitation  
Precipitation 0.00 in - - ()
Sea Level Pressure  
Sea Level Pressure 30.24 in    
Wind  
Wind Speed 22 mph (NW)    
Max Wind Speed 30 mph    
Max Gust Speed 39 mph    
Visibility 10 miles    
Events      
Averages and records for this station are not official NWS values.
T = Trace of Precipitation, MM = Missing Value Source: NWS Daily Summary

Daily Weather History Graph

Daily Weather History Graph

Search for Another Location

Airport or City:

Trip Planner

Search our weather history database for the weather conditions in past years. The results will help you decide how hot, cold, wet, or windy it might be!

Date:

Astronomy

Oct. 28, 2010 Rise Set
Actual Time 7:57 AM CDT 6:17 PM CDT
Civil Twilight 7:26 AM CDT 6:47 PM CDT
Nautical Twilight 6:52 AM CDT 7:22 PM CDT
Astronomical Twilight 6:18 AM CDT 7:56 PM CDT
Moon 10:41 PM CDT (10/28) 1:27 PM CDT (10/28)
Length of Visible Light 11h 20m
Length of Day
10h 20m
Waning Gibbous, 70% of the Moon is Illuminated
Oct 28
Waning Gibbous
Oct 30
Last Quarter
Nov 5
New
Nov 13
First Quarter
Nov 21
Full

Hourly Weather History & Observations

Time (CDT) Temp. Windchill Dew Point Humidity Pressure Visibility Wind Dir Wind Speed Gust Speed Precip Events Conditions
12:13 AM 33.8 °F 20.3 °F 32.0 °F 93% 29.99 in 10.0 mi NW 28.8 mph 33.4 mph N/A   Overcast
12:33 AM 33.8 °F 20.8 °F 32.0 °F 93% 30.01 in 10.0 mi NW 26.5 mph 35.7 mph N/A   Overcast
12:54 AM 33.8 °F 21.3 °F 30.2 °F 87% 30.02 in 10.0 mi NW 24.2 mph 38.0 mph N/A   Overcast
1:14 AM 33.8 °F 20.1 °F 30.2 °F 87% 30.03 in 10.0 mi NW 29.9 mph 39.1 mph N/A   Overcast
1:33 AM 32.0 °F 17.9 °F 30.2 °F 93% 30.04 in 10.0 mi NW 28.8 mph 35.7 mph N/A   Overcast
1:54 AM 32.0 °F 18.9 °F 30.2 °F 93% 30.05 in 10.0 mi NW 24.2 mph 32.2 mph N/A   Overcast
2:14 AM 32.0 °F 18.4 °F 30.2 °F 93% 30.07 in 10.0 mi NW 26.5 mph 35.7 mph N/A   Overcast
2:34 AM 30.2 °F 16.2 °F 30.2 °F 100% 30.08 in 10.0 mi NW 25.3 mph 32.2 mph N/A   Overcast
2:54 AM 30.2 °F 16.8 °F 30.2 °F 100% 30.09 in 10.0 mi NW 23.0 mph 29.9 mph N/A   Overcast
3:13 AM 30.2 °F 17.1 °F 30.2 °F 100% 30.10 in 10.0 mi NW 21.9 mph 31.1 mph N/A   Overcast
3:34 AM 30.2 °F 16.5 °F 28.4 °F 93% 30.11 in 10.0 mi NW 24.2 mph 32.2 mph N/A   Overcast
3:54 AM 30.2 °F 16.5 °F 28.4 °F 93% 30.12 in 10.0 mi NW 24.2 mph 29.9 mph N/A   Overcast
4:14 AM 30.2 °F 16.5 °F 28.4 °F 93% 30.13 in 10.0 mi NW 24.2 mph 32.2 mph N/A   Overcast
4:33 AM 30.2 °F 17.1 °F 28.4 °F 93% 30.14 in 10.0 mi NW 21.9 mph 29.9 mph N/A   Overcast
4:54 AM 30.2 °F 16.2 °F 28.4 °F 93% 30.15 in 10.0 mi NW 25.3 mph 32.2 mph N/A   Overcast
5:14 AM 30.2 °F 18.9 °F 28.4 °F 93% 30.15 in 10.0 mi NW 16.1 mph 25.3 mph N/A   Overcast
5:33 AM 30.2 °F 17.4 °F 28.4 °F 93% 30.16 in 10.0 mi NW 20.7 mph 26.5 mph N/A   Overcast
5:54 AM 30.2 °F 18.5 °F 28.4 °F 93% 30.17 in 10.0 mi NW 17.3 mph 24.2 mph N/A   Overcast
6:14 AM 28.4 °F 14.7 °F 28.4 °F 100% 30.19 in 10.0 mi WNW 21.9 mph 29.9 mph N/A   Overcast
6:34 AM 28.4 °F 15.1 °F 26.6 °F 93% 30.20 in 10.0 mi WNW 20.7 mph 26.5 mph N/A   Overcast
6:54 AM 28.4 °F 14.4 °F 26.6 °F 93% 30.21 in 10.0 mi NW 23.0 mph 29.9 mph N/A   Overcast
7:13 AM 28.4 °F 14.4 °F 26.6 °F 93% 30.22 in 10.0 mi NW 23.0 mph 28.8 mph N/A   Overcast
7:33 AM 28.4 °F 16.6 °F 26.6 °F 93% 30.23 in 10.0 mi NW 16.1 mph 23.0 mph N/A   Overcast
7:54 AM 28.4 °F 14.7 °F 26.6 °F 93% 30.24 in 10.0 mi WNW 21.9 mph - N/A   Overcast
8:14 AM 28.4 °F 16.2 °F 26.6 °F 93% 30.25 in 10.0 mi NW 17.3 mph - N/A   Overcast
8:34 AM 28.4 °F 15.8 °F 26.6 °F 93% 30.26 in 10.0 mi NW 18.4 mph 26.5 mph N/A   Overcast
8:54 AM 28.4 °F 15.8 °F 24.8 °F 86% 30.27 in 10.0 mi NW 18.4 mph 26.5 mph N/A   Overcast
9:14 AM 28.4 °F 15.8 °F 26.6 °F 93% 30.28 in 10.0 mi NW 18.4 mph 23.0 mph N/A   Overcast
9:34 AM 28.4 °F 15.8 °F 24.8 °F 86% 30.29 in 10.0 mi NW 18.4 mph 28.8 mph N/A   Overcast
9:54 AM 28.4 °F 15.1 °F 24.8 °F 86% 30.30 in 10.0 mi WNW 20.7 mph 26.5 mph N/A   Overcast
10:13 AM 28.4 °F 15.1 °F 26.6 °F 93% 30.31 in 10.0 mi NW 20.7 mph 24.2 mph N/A   Overcast
10:34 AM 28.4 °F 15.8 °F 26.6 °F 93% 30.32 in 10.0 mi WNW 18.4 mph 23.0 mph N/A   Overcast
10:54 AM 28.4 °F 16.6 °F 26.6 °F 93% 30.32 in 10.0 mi NW 16.1 mph 25.3 mph N/A   Mostly Cloudy
11:14 AM 30.2 °F 19.3 °F 26.6 °F 86% 30.32 in 10.0 mi NW 15.0 mph - N/A   Overcast
11:34 AM 30.2 °F 18.9 °F 26.6 °F 86% 30.32 in 10.0 mi NW 16.1 mph 24.2 mph N/A   Mostly Cloudy
11:53 AM 30.2 °F 17.8 °F 26.6 °F 86% 30.33 in 10.0 mi WNW 19.6 mph - N/A   Mostly Cloudy
12:13 PM 32.0 °F 21.6 °F 26.6 °F 80% 30.33 in 10.0 mi NW 15.0 mph 23.0 mph N/A   Mostly Cloudy
12:33 PM 32.0 °F 21.2 °F 26.6 °F 80% 30.33 in 10.0 mi NW 16.1 mph 24.2 mph N/A   Scattered Clouds
12:54 PM 33.8 °F 23.2 °F 28.4 °F 81% 30.34 in 10.0 mi WNW 17.3 mph 21.9 mph N/A   Scattered Clouds
1:14 PM 33.8 °F 23.9 °F 28.4 °F 81% 30.34 in 10.0 mi NW 15.0 mph 20.7 mph N/A   Scattered Clouds
1:34 PM 35.6 °F 25.5 °F 28.4 °F 75% 30.35 in 10.0 mi NW 17.3 mph 25.3 mph N/A   Scattered Clouds
1:53 PM 35.6 °F 25.5 °F 28.4 °F 75% 30.34 in 10.0 mi WNW 17.3 mph - N/A   Clear
2:13 PM 35.6 °F 25.2 °F 26.6 °F 70% 30.33 in 10.0 mi NW 18.4 mph 24.2 mph N/A   Clear
2:33 PM 37.4 °F 28.2 °F 26.6 °F 65% 30.33 in 10.0 mi NW 16.1 mph - N/A   Clear
2:53 PM 37.4 °F 28.2 °F 26.6 °F 65% 30.33 in 10.0 mi WNW 16.1 mph - N/A   Clear
3:14 PM 37.4 °F 27.5 °F 24.8 °F 60% 30.34 in 10.0 mi WNW 18.4 mph - N/A   Clear
3:34 PM 37.4 °F 27.5 °F 26.6 °F 65% 30.34 in 10.0 mi NW 18.4 mph 21.9 mph N/A   Clear
3:54 PM 37.4 °F 28.5 °F 24.8 °F 60% 30.34 in 10.0 mi NW 15.0 mph 23.0 mph N/A   Clear
4:14 PM 37.4 °F 27.8 °F 26.6 °F 65% 30.34 in 10.0 mi NW 17.3 mph 20.7 mph N/A   Clear
4:34 PM 37.4 °F 28.9 °F 26.6 °F 65% 30.34 in 10.0 mi NW 13.8 mph - N/A   Clear
4:54 PM 37.4 °F 29.3 °F 26.6 °F 65% 30.34 in 10.0 mi NW 12.7 mph - N/A   Clear
5:14 PM 37.4 °F 28.9 °F 26.6 °F 65% 30.34 in 10.0 mi NW 13.8 mph - N/A   Clear
5:34 PM 35.6 °F 27.5 °F 26.6 °F 70% 30.34 in 10.0 mi NW 11.5 mph - N/A   Clear
5:54 PM 35.6 °F 28.6 °F 26.6 °F 70% 30.34 in 10.0 mi NW 9.2 mph - N/A   Clear
6:14 PM 33.8 °F 27.7 °F 26.6 °F 75% 30.34 in 10.0 mi NW 6.9 mph - N/A   Clear
6:34 PM 30.2 °F 25.4 °F 26.6 °F 86% 30.35 in 10.0 mi WNW 4.6 mph - N/A   Clear
6:53 PM 28.4 °F 21.2 °F 26.6 °F 93% 30.35 in 10.0 mi WNW 6.9 mph - N/A   Clear
7:13 PM 26.6 °F 20.0 °F 24.8 °F 93% 30.35 in 10.0 mi WNW 5.8 mph - N/A   Clear
7:33 PM 26.6 °F 20.0 °F 24.8 °F 93% 30.36 in 10.0 mi WNW 5.8 mph - N/A   Clear
8:14 PM 23.0 °F 17.0 °F 23.0 °F 100% 30.36 in 10.0 mi West 4.6 mph - N/A   Clear
8:34 PM 24.8 °F 17.9 °F 24.8 °F 100% 30.36 in 10.0 mi WSW 5.8 mph - N/A   Clear
8:54 PM 24.8 °F 19.1 °F 24.8 °F 100% 30.36 in 10.0 mi West 4.6 mph - N/A   Clear
9:14 PM 24.8 °F 19.1 °F 24.8 °F 100% 30.36 in 10.0 mi West 4.6 mph - N/A   Clear
9:34 PM 23.0 °F 17.0 °F 23.0 °F 100% 30.36 in 10.0 mi West 4.6 mph - N/A   Clear
9:54 PM 23.0 °F 17.0 °F 23.0 °F 100% 30.36 in 10.0 mi West 4.6 mph - N/A   Clear
10:14 PM 24.8 °F 20.5 °F 24.8 °F 100% 30.35 in 10.0 mi WSW 3.5 mph - N/A   Clear
10:34 PM 26.6 °F 22.6 °F 26.6 °F 100% 30.35 in 10.0 mi SW 3.5 mph - N/A   Clear
10:54 PM 26.6 °F - 26.6 °F 100% 30.35 in 10.0 mi Calm Calm - N/A   Clear
11:14 PM 26.6 °F - 26.6 °F 100% 30.33 in 10.0 mi Calm Calm - N/A   Clear
11:34 PM 24.8 °F 20.5 °F 24.8 °F 100% 30.34 in 10.0 mi SSW 3.5 mph - N/A   Clear
11:54 PM 26.6 °F - 26.6 °F 100% 30.33 in 10.0 mi Calm Calm - N/A   Clear